Weather History for Lamoni, IA

Change the Weather History Date:

Sunday, May 19, 2013

  Actual Average Record
Temperature  
Mean Temperature 72 °F 62 °F  
Max Temperature 83 °F 72 °F 89 °F (2006)
Min Temperature 60 °F 52 °F 37 °F (2002)
Degree Days  
Heating Degree Days 0 5  
Month to date heating degree days 157 128  
Since 1 July heating degree days 6037 6023  
Cooling Degree Days 7 2  
Month to date cooling degree days 38 18  
Year to date cooling degree days 50 25  
Growing Degree Days 21 (Base 50)    
Moisture  
Dew Point 61 °F    
Average Humidity 72    
Maximum Humidity 93    
Minimum Humidity 51    
Precipitation  
Precipitation 0.50 in 0.18 in 1.95 in (1987)
Month to date precipitation 2.72 3.14  
Sea Level Pressure  
Sea Level Pressure 29.70 in    
Wind  
Wind Speed 11 mph (South)    
Max Wind Speed 32 mph    
Max Gust Speed 40 mph    
Visibility 9 miles    
Events Rain , Thunderstorm    
T = Trace of Precipitation, MM = Missing Value Source: NWS Daily Summary

Daily Weather History Graph

Daily Weather History Graph

Search for Another Location

Airport:

Trip Planner

Search our weather history database for the weather conditions in past years. The results will help you decide how hot, cold, wet, or windy it might be!

Date:

Astronomy

May. 19, 2013 Rise Set
Actual Time 5:54 AM CDT 8:29 PM CDT
Civil Twilight 5:23 AM CDT 9:01 PM CDT
Nautical Twilight 4:44 AM CDT 9:40 PM CDT
Astronomical Twilight 4:00 AM CDT 10:24 PM CDT
Moon 2:33 PM CDT (5/19) 2:20 AM CDT (5/19)
Length of Visible Light 15h 37m
Length of Day
14h 34m
Waxing Gibbous, 65% of the Moon is Illuminated
May 19
Waxing Gibbous
May 24
Full
May 31
Last Quarter
Jun 8
New
Jun 16
First Quarter

Hourly Weather History & Observations

Time (CDT) Temp. Heat Index Dew Point Humidity Pressure Visibility Wind Dir Wind Speed Gust Speed Precip Events Conditions
12:38 AM 73.4 °F - 64.4 °F 73% 29.79 in 10.0 mi SE 11.5 mph 18.4 mph N/A   Overcast
12:53 AM 73.0 °F - 64.0 °F 73% 29.78 in 10.0 mi SSE 10.4 mph 18.4 mph N/A   Overcast
1:07 AM 73.4 °F - 64.4 °F 73% 29.81 in 10.0 mi SSE 9.2 mph - N/A   Overcast
1:53 AM 73.0 °F - 64.9 °F 76% 29.77 in 10.0 mi SE 12.7 mph 17.3 mph N/A   Overcast
1:59 AM 73.4 °F - 64.4 °F 73% 29.80 in 10.0 mi South 10.4 mph 18.4 mph N/A Thunderstorm Mostly Cloudy
2:18 AM 69.8 °F - 59.0 °F 68% 29.85 in 10.0 mi West 16.1 mph 35.7 mph 0.00 in Rain , Thunderstorm Light Rain
2:38 AM 66.2 °F - 60.8 °F 83% 29.82 in 10.0 mi West 6.9 mph - 0.00 in Rain Light Rain
2:53 AM 66.9 °F - 59.0 °F 76% 29.80 in 10.0 mi SW 4.6 mph - 0.00 in   Mostly Cloudy
3:53 AM 64.9 °F - 59.0 °F 81% 29.75 in 10.0 mi ESE 5.8 mph - N/A   Mostly Cloudy
4:53 AM 64.9 °F - 57.9 °F 78% 29.72 in 10.0 mi SE 5.8 mph - N/A   Clear
5:53 AM 64.9 °F - 59.0 °F 81% 29.75 in 10.0 mi South 9.2 mph 17.3 mph N/A   Scattered Clouds
7:53 AM 66.0 °F - 60.1 °F 81% 29.72 in 10.0 mi SSE 13.8 mph - N/A   Clear
8:53 AM 70.0 °F - 61.0 °F 73% 29.77 in 10.0 mi SSE 12.7 mph 19.6 mph N/A   Clear
9:53 AM 71.1 °F - 61.0 °F 70% 29.65 in 10.0 mi SE 9.2 mph 23.0 mph N/A   Partly Cloudy
10:53 AM 75.0 °F - 62.1 °F 64% 29.68 in 10.0 mi South 11.5 mph 18.4 mph N/A   Mostly Cloudy
11:53 AM 80.1 °F 80.9 °F 60.1 °F 50% 29.68 in 10.0 mi South 19.6 mph 25.3 mph N/A   Clear
12:53 PM 80.1 °F 81.1 °F 61.0 °F 52% 29.67 in 10.0 mi SSW 20.7 mph 31.1 mph N/A   Clear
3:53 PM 81.0 °F 82.7 °F 64.9 °F 58% 29.64 in 10.0 mi South 17.3 mph 27.6 mph N/A   Mostly Cloudy
4:53 PM 82.0 °F 84.1 °F 66.0 °F 58% 29.59 in 10.0 mi South 10.4 mph 17.3 mph N/A   Mostly Cloudy
5:53 PM 80.1 °F 82.1 °F 66.0 °F 62% 29.57 in 10.0 mi South 11.5 mph 17.3 mph N/A   Scattered Clouds
6:53 PM 79.0 °F - 66.0 °F 64% 29.58 in 10.0 mi South 8.1 mph - N/A   Partly Cloudy
7:53 PM 78.1 °F - 66.9 °F 68% 29.56 in 10.0 mi South 8.1 mph - N/A   Clear
8:38 PM 66.2 °F - 57.2 °F 73% 29.61 in 10.0 mi WNW 25.3 mph 40.3 mph 0.00 in Rain , Thunderstorm Light Rain
8:48 PM 62.6 °F - 57.2 °F 82% 29.71 in 2.0 mi West 28.8 mph 39.1 mph 0.00 in Rain , Thunderstorm Thunderstorms and Rain
8:49 PM 62.6 °F - 57.2 °F 82% 29.71 in 1.8 mi West 21.9 mph 39.1 mph 0.02 in Rain , Thunderstorm Heavy Thunderstorms and Rain
8:53 PM 60.1 °F - 57.9 °F 93% 29.70 in 1.0 mi WSW 15.0 mph 39.1 mph 0.24 in Rain , Thunderstorm Heavy Thunderstorms and Rain
9:00 PM 60.8 °F - 57.2 °F 88% 29.70 in 2.0 mi West 11.5 mph 21.9 mph 0.12 in Rain , Thunderstorm Thunderstorms and Rain
9:02 PM 60.8 °F - 57.2 °F 88% 29.70 in 3.0 mi West 8.1 mph 21.9 mph 0.13 in Rain , Thunderstorm Thunderstorms and Rain
9:20 PM 60.8 °F - 57.2 °F 88% 29.68 in 5.0 mi East 3.5 mph - 0.17 in Rain , Thunderstorm Light Rain
9:53 PM 60.1 °F - 57.9 °F 93% 29.63 in 9.0 mi East 5.8 mph - 0.22 in Rain , Thunderstorm Light Thunderstorms and Rain
10:11 PM 60.8 °F - 59.0 °F 94% 29.65 in 10.0 mi ESE 5.8 mph - 0.03 in Rain Light Rain
11:53 PM 61.0 °F - 57.9 °F 90% 29.64 in 10.0 mi SSE 12.7 mph 18.4 mph N/A   Partly Cloudy